Weather History for Rome, OR

Change the Weather History Date:

Wednesday, February 13, 2013

  Actual Average Record
Temperature  
Mean Temperature 40 °F 33 °F  
Max Temperature 55 °F 44 °F 56 °F (1947)
Min Temperature 24 °F 21 °F 4 °F (1949)
Degree Days  
Heating Degree Days 25 32  
Month to date heating degree days 390 431  
Since 1 July heating degree days 4182 4280  
Cooling Degree Days 0 0  
Month to date cooling degree days 0 0  
Year to date cooling degree days 0 0  
Moisture  
Dew Point 25 °F    
Average Humidity 59    
Maximum Humidity 92    
Minimum Humidity 26    
Precipitation  
Precipitation 0.00 in 0.02 in 0.70 in (1987)
Month to date precipitation 0.11 0.35  
Year to date precipitation 0.66 1.00  
Sea Level Pressure  
Sea Level Pressure 30.34 in    
Wind  
Wind Speed 6 mph (SW)    
Max Wind Speed 16 mph    
Max Gust Speed 21 mph    
T = Trace of Precipitation, MM = Missing Value Source: NWS Daily Summary

Daily Weather History Graph

Daily Weather History Graph

Search for Another Location

Airport:

Trip Planner

Search our weather history database for the weather conditions in past years. The results will help you decide how hot, cold, wet, or windy it might be!

Date:

Astronomy

Feb. 13, 2013 Rise Set
Actual Time 6:50 AM PST 5:21 PM PST
Civil Twilight 6:21 AM PST 5:50 PM PST
Nautical Twilight 5:48 AM PST 6:23 PM PST
Astronomical Twilight 5:15 AM PST 6:56 PM PST
Moon 8:16 AM PST 9:35 PM PST
Length of Visible Light 11h 28m
Length of Day
10h 30m
Waxing Crescent, 14% of the Moon is Illuminated
Feb 13
Waxing Crescent
Feb 17
First Quarter
Feb 25
Full
Mar 4
Last Quarter
Mar 11
New

Hourly Weather History & Observations

Time (PST) Temp. Windchill Dew Point Humidity Pressure Visibility Wind Dir Wind Speed Gust Speed Precip Events Conditions
12:52 AM 25.0 °F 18.1 °F 23.0 °F 92% 30.39 in - SSW 5.8 mph - N/A   Unknown
1:52 AM 28.9 °F 21.1 °F 25.0 °F 85% 30.36 in - South 8.1 mph - N/A   Unknown
2:52 AM 28.0 °F 24.2 °F 24.1 °F 85% 30.36 in - SSW 3.5 mph - N/A   Unknown
3:52 AM 24.1 °F 18.2 °F 21.0 °F 88% 30.37 in - SSW 4.6 mph - N/A   Unknown
4:52 AM 30.0 °F 25.2 °F 25.0 °F 82% 30.36 in - SSW 4.6 mph - N/A   Unknown
5:52 AM 27.0 °F 23.0 °F 24.1 °F 89% 30.38 in - South 3.5 mph - N/A   Unknown
6:52 AM 30.9 °F 26.2 °F 25.0 °F 79% 30.38 in - SW 4.6 mph - N/A   Unknown
7:52 AM 34.0 °F - 27.0 °F 75% 30.40 in - Calm Calm - N/A   Unknown
8:52 AM 37.0 °F 32.4 °F 28.0 °F 70% 30.38 in - SSE 5.8 mph - N/A   Unknown
9:52 AM 44.1 °F 37.7 °F 28.0 °F 53% 30.36 in - SSW 12.7 mph - N/A   Unknown
10:52 AM 48.0 °F - 28.0 °F 46% 30.34 in - South 15.0 mph - N/A   Unknown
11:52 AM 50.0 °F - 28.0 °F 43% 30.32 in - SW 8.1 mph - N/A   Unknown
12:52 PM 52.0 °F - 27.0 °F 38% 30.31 in - WSW 11.5 mph - N/A   Unknown
1:52 PM 54.0 °F - 25.0 °F 33% 30.28 in - Variable 6.9 mph - N/A   Unknown
2:52 PM 53.1 °F - 19.0 °F 26% 30.28 in - NW 5.8 mph - N/A   Unknown
3:52 PM 52.0 °F - 21.0 °F 30% 30.30 in - WNW 11.5 mph - N/A   Unknown
4:52 PM 48.0 °F - 24.1 °F 39% 30.30 in - NW 12.7 mph - N/A   Unknown
5:52 PM 45.0 °F 40.6 °F 23.0 °F 42% 30.32 in - NNW 8.1 mph - N/A   Unknown
6:52 PM 44.1 °F 42.5 °F 24.1 °F 45% 30.32 in - Variable 3.5 mph - N/A   Unknown
7:52 PM 42.1 °F 40.2 °F 21.9 °F 45% 30.34 in - East 3.5 mph - N/A   Unknown
8:52 PM 39.9 °F 36.7 °F 24.1 °F 53% 30.34 in - NNW 4.6 mph - N/A   Unknown
9:52 PM 39.9 °F - 25.0 °F 55% 30.34 in - Calm Calm - N/A   Unknown
10:52 PM 41.0 °F 36.4 °F 25.0 °F 53% 30.34 in - North 6.9 mph - N/A   Unknown
11:52 PM 39.0 °F - 26.1 °F 60% 30.35 in - Calm Calm - N/A   Unknown